Regional Weather Roundup
Issued by NWS Bismarck, ND

Home | Current Version | Previous Version | Text Only | Print | Product List | Glossary On
Versions: 1 2 3 4 5 6 7 8 9 10 11 12 13 14 15 16 17 18 19 20 21 22 23 24 25 26 27 28 29 30 31 32 33 34 35 36 37 38 39 40 41 42 43 44 45 46 47 48 49 50
000
ASUS43 KBIS 021001
RWRBIS

NWR BROADCAST TEXT
NATIONAL WEATHER SERVICE BISMARCK ND
400 AM CST MON MAR 02 2015

NOTE: "FAIR" INDICATES FEW OR NO CLOUDS BELOW 12,000 FEET WITH NO
SIGNIFICANT WEATHER AND/OR OBSTRUCTIONS TO VISIBILITY.


CITY           SKY/WX    TMP DP  RH WIND       PRES   REMARKS
WILLISTON      PTCLDY     8   4  83 CALM      30.12F
MINOT          PTCLDY     8   1  73 CALM      30.20F
MINOT AFB      NOT AVBL
BISMARCK       CLEAR      4   1  88 E3        30.29F
DICKINSON      CLEAR      6   1  80 SE9       30.10F WCI  -8
GARRISON         N/A      3   0  87 SE3       30.21F
HETTINGER ARPT CLEAR     10   5  80 SE10      30.15F WCI  -4
JAMESTOWN      PTCLDY     4  -1  80 CALM      30.31F
CARRINGTON     FAIR       7   5  92 MISG      30.30F
CROSBY         FAIR       3   0  85 S12       30.12F WCI -13
HAZEN          FAIR      10   5  79 S13       30.23F WCI  -5
OAKES            N/A      0  -4  85 S5        30.37F WCI -10
WATFORD CITY   FAIR      10   5  79 SE10      30.10F WCI  -3
$$

CITY           SKY/WX    TMP DP  RH WIND       PRES   REMARKS
GRAND FORKS    MOCLDY    -3  -8  79 S6        30.34F WCI -15
GRAND FORKS AF MOCLDY     1  -4  80 W6        30.34F WCI -10
DEVILS LAKE    PTCLDY     1  -8  66 SW5       30.28F WCI  -8
FARGO          PTCLDY     2  -3  80 SW6       30.39F WCI  -9
GWINNER        SUNNY      3   0  85 SW8       30.38F WCI -10
$$

CITY           SKY/WX    TMP DP  RH WIND       PRES   REMARKS
ABERDEEN       MOCLDY    -3  -6  87 S5        30.39F WCI -13
MOBRIDGE       PTCLDY     8   3  80 SE7       30.28F WCI  -3
BUFFALO          N/A     12   5  73 SE13      30.01F WCI  -3
RAPID CITY     MOCLDY    16   9  74 S13       30.12F WCI   2
GLASGOW        PTCLDY    16   9  74 SE16      29.95F WCI   1
SIDNEY         CLEAR      9   3  78 CALM      30.12F
WOLF POINT     PTCLDY    11   5  77 NE5       30.03F WCI   3
GLENDIVE       CLEAR     12   7  79 S3        30.06F
MILES CITY     PTCLDY    15   7  70 SE16      30.00F WCI  -1
BAKER          CLEAR     12   5  73 S20       30.05F WCI  -6
$$

CITY           SKY/WX    TMP DP  RH WIND       PRES   REMARKS
BILLINGS       CLEAR     18   7  62 SW12      29.90F WCI   5
GREAT FALLS    CLOUDY    30   9  41 SW23      29.80F WCI  17
$$




USA.gov is the U.S. government's official web portal to all federal, state and local government web resources and services.